Location: Newark
(52.8300°N, 8.0000°E)
Time: 00:57:40
(UTC+00:00)

STARLINK-1077 - Pass Details

Date: 01 February 2020
Orbit: 348 x 351 km, 53.0° (Epoch: 28 February)

Event Time Altitude Azimuth Distance (km) Brightness Sun altitude
Rises 17:17:18 0° 283° (WNW) 2,177 7.9 -10.0°
Reaches altitude 10° 17:19:33 10° 268° (W) 1,330 7.1 -10.3°
Maximum altitude 17:21:58 23° 213° (SSW) 811 5.1 -10.7°
Drops below altitude 10° 17:24:24 10° 158° (SSE) 1,323 5.5 -11.0°
Enters shadow 17:26:45 - 142° (SE) 2,210 6.5 -11.4°
